Location: Toronto
(43.6667°N, 79.4167°W)
Time: 10:16:58
(UTC-04:00)

X-37B - Pass Details

Date: 22 June 2021
Orbit: 383 x 392 km, 45.0° (Epoch: 01 July)

Event Time Altitude Azimuth Distance (km) Brightness Sun altitude
Rises 23:37:29 0° 250° (WSW) 2,250 4.5 -18.9°
Reaches altitude 10° 23:39:33 10° 249° (WSW) 1,398 3.4 -19.1°
Enters shadow 23:41:05 26° 246° (WSW) 788 2.1 -19.2°
